Terug naar catalogus

CZ-4C DEB

ActiefPO
NORAD 39231·DEBRIS·🇨🇳 China

Gelanceerd Jul 19, 2013 vanaf Taiyuan Satellite Launch Center

Loading…

Volgende Passages (komende 24 uur)

TLE

VersSource: Space-Track

Epoch: Sep 13, 2026, 05:36 UTC

1 39231U 13037H   26256.23376416  .00000897  00000-0  34488-3 0  9999
2 39231  98.0645 260.8678 0235252 326.6229  32.0302 14.18623160673006

Volg CZ-4C DEB in realtime met AllMySat

Download on the App Store